owner,sensor,date,latitude,longitude,vertical_datum,wind_speed,wind_to_direction,wind_speed_of_gust,qcFlag 
TABS,ioos:station:wmo:42045:1,2019-03-01T05:00:00Z,26.2168,-96.4998,4.0,4.97,96.9,5.63,'1111122,1111122,1111122' 
TABS,ioos:station:wmo:42045:1,2019-03-01T07:00:00Z,26.2168,-96.4998,4.0,1.88,52.6,2.32,'1111122,1111122,1111122' 
TABS,ioos:station:wmo:42045:1,2019-03-01T08:30:00Z,26.2168,-96.4998,4.0,2.46,35.0,2.99,'1111122,1111122,1111122' 
TABS,ioos:station:wmo:42045:1,2019-03-01T10:00:00Z,26.2168,-96.4998,4.0,3.32,29.6,4.48,'1111122,1111122,1111122' 
TABS,ioos:station:wmo:42045:1,2019-03-01T11:00:00Z,26.2168,-96.4998,4.0,2.71,33.0,3.47,'1111122,1111122,1111122' 
TABS,ioos:station:wmo:42045:1,2019-03-01T13:00:00Z,26.2168,-96.4998,4.0,2.48,1.3,3.02,'1111122,1111122,1111122' 
TABS,ioos:station:wmo:42045:1,2019-03-01T13:30:00Z,26.2168,-96.4998,4.0,2.91,1.4,3.68,'1111122,1111122,1111122' 
TABS,ioos:station:wmo:42045:1,2019-03-01T15:00:00Z,26.2168,-96.4998,4.0,4.15,22.6,5.13,'1111122,1111122,1111122' 
TABS,ioos:station:wmo:42045:1,2019-03-01T16:00:00Z,26.2168,-96.4998,4.0,4.75,92.1,5.81,'1111122,1111122,1111122' 
TABS,ioos:station:wmo:42045:1,2019-03-01T17:00:00Z,26.2168,-96.4998,4.0,4.17,94.6,4.78,'1111122,1111122,1111122' 
TABS,ioos:station:wmo:42045:1,2019-03-01T19:30:00Z,26.2168,-96.4998,4.0,1.22,35.5,1.73,'1111122,1111122,1111122' 
TABS,ioos:station:wmo:42045:1,2019-03-01T20:30:00Z,26.2168,-96.4998,4.0,0.98,6.2,1.5,'1111122,1111122,1111122' 
TABS,ioos:station:wmo:42045:1,2019-03-01T22:00:00Z,26.2168,-96.4998,4.0,2.61,112.1,3.06,'1111122,1111122,1111122' 
TABS,ioos:station:wmo:42045:1,2019-03-01T23:30:00Z,26.2168,-96.4998,4.0,2.98,116.6,3.52,'1111122,1111122,1111122' 
TABS,ioos:station:wmo:42045:1,2019-03-02T05:00:00Z,26.2168,-96.4998,4.0,2.5,97.5,2.83,'1111122,1111122,1111122' 
TABS,ioos:station:wmo:42045:1,2019-03-02T06:30:00Z,26.2168,-96.4998,4.0,3.19,119.6,3.65,'1111122,1111122,1111122' 
TABS,ioos:station:wmo:42045:1,2019-03-02T07:30:00Z,26.2168,-96.4998,4.0,4.45,123.0,4.96,'1111122,1111122,1111122' 
TABS,ioos:station:wmo:42045:1,2019-03-02T08:30:00Z,26.2168,-96.4998,4.0,3.94,120.3,4.43,'1111122,1111122,1111122' 
TABS,ioos:station:wmo:42045:1,2019-03-02T10:00:00Z,26.2168,-96.4998,4.0,3.35,116.1,3.82,'1111122,1111122,1111122' 
TABS,ioos:station:wmo:42045:1,2019-03-02T11:00:00Z,26.2168,-96.4998,4.0,4.22,133.5,4.62,'1111122,1111122,1111122' 
TABS,ioos:station:wmo:42045:1,2019-03-02T12:00:00Z,26.2168,-96.4998,4.0,5.54,165.5,6.35,'1111122,1111122,1111122' 
TABS,ioos:station:wmo:42045:1,2019-03-02T14:00:00Z,26.2168,-96.4998,4.0,3.18,154.9,3.44,'1111122,1111122,1111122' 
TABS,ioos:station:wmo:42045:1,2019-03-02T15:00:00Z,26.2168,-96.4998,4.0,3.27,167.8,3.66,'1111122,1111122,1111122' 
TABS,ioos:station:wmo:42045:1,2019-03-02T16:00:00Z,26.2168,-96.4998,4.0,2.48,152.7,2.74,'1111122,1111122,1111122' 
TABS,ioos:station:wmo:42045:1,2019-03-02T17:00:00Z,26.2168,-96.4998,4.0,4.83,157.3,5.51,'1111122,1111122,1111122' 
TABS,ioos:station:wmo:42045:1,2019-03-02T18:00:00Z,26.2168,-96.4998,4.0,2.61,152.2,3.16,'1111122,1111122,1111122' 
TABS,ioos:station:wmo:42045:1,2019-03-02T19:00:00Z,26.2168,-96.4998,4.0,3.64,152.0,4.02,'1111122,1111122,1111122' 
TABS,ioos:station:wmo:42045:1,2019-03-02T20:00:00Z,26.2168,-96.4998,4.0,4.23,138.8,4.77,'1111122,1111122,1111122' 
TABS,ioos:station:wmo:42045:1,2019-03-02T21:00:00Z,26.2168,-96.4998,4.0,4.45,125.1,5.13,'1111122,1111122,1111122' 
TABS,ioos:station:wmo:42045:1,2019-03-02T22:30:00Z,26.2168,-96.4998,4.0,3.66,109.7,4.15,'1111122,1111122,1111122' 
TABS,ioos:station:wmo:42045:1,2019-03-02T23:30:00Z,26.2168,-96.4998,4.0,4.18,108.5,4.62,'1111122,1111122,1111122' 
TABS,ioos:station:wmo:42045:1,2019-03-03T06:00:00Z,26.2168,-96.4998,4.0,2.32,101.1,2.7,'1111122,1111122,1111122' 
TABS,ioos:station:wmo:42045:1,2019-03-03T07:00:00Z,26.2168,-96.4998,4.0,3.76,133.0,4.25,'1111122,1111122,1111122' 
TABS,ioos:station:wmo:42045:1,2019-03-03T08:00:00Z,26.2168,-96.4998,4.0,5.8,153.1,6.58,'1111122,1111122,1111122' 
TABS,ioos:station:wmo:42045:1,2019-03-03T09:30:00Z,26.2168,-96.4998,4.0,5.37,162.0,6.13,'1111122,1111122,1111122' 
TABS,ioos:station:wmo:42045:1,2019-03-03T10:30:00Z,26.2168,-96.4998,4.0,6.05,160.8,6.86,'1111122,1111122,1111122' 
TABS,ioos:station:wmo:42045:1,2019-03-03T11:30:00Z,26.2168,-96.4998,4.0,5.02,153.3,6.11,'1111122,1111122,1111122' 
TABS,ioos:station:wmo:42045:1,2019-03-03T14:00:00Z,26.2168,-96.4998,4.0,3.0,143.0,4.12,'1111122,1111122,1111122' 
TABS,ioos:station:wmo:42045:1,2019-03-03T17:00:00Z,26.2168,-96.4998,4.0,0.93,197.5,1.24,'1111122,1111122,1111122' 
TABS,ioos:station:wmo:42045:1,2019-03-03T18:30:00Z,26.2168,-96.4998,4.0,0.73,312.8,1.09,'1111122,1111122,1111122' 
TABS,ioos:station:wmo:42045:1,2019-03-03T19:00:00Z,26.2168,-96.4998,4.0,1.68,309.7,2.25,'1111122,1111122,1111122' 
TABS,ioos:station:wmo:42045:1,2019-03-03T20:30:00Z,26.2168,-96.4998,4.0,1.97,334.0,2.74,'1111122,1111122,1111122' 
TABS,ioos:station:wmo:42045:1,2019-03-03T21:30:00Z,26.2168,-96.4998,4.0,8.09,356.5,10.01,'1111122,1111122,1111122' 
TABS,ioos:station:wmo:42045:1,2019-03-03T22:30:00Z,26.2168,-96.4998,4.0,6.52,34.2,10.05,'1111122,1111122,1111122' 
TABS,ioos:station:wmo:42045:1,2019-03-03T23:30:00Z,26.2168,-96.4998,4.0,6.43,42.3,10.01,'1111122,1111122,1111122' 
TABS,ioos:station:wmo:42045:1,2019-03-04T05:00:00Z,26.2168,-96.4998,4.0,7.55,60.3,10.94,'1111122,1111122,1111122' 
TABS,ioos:station:wmo:42045:1,2019-03-04T06:00:00Z,26.2168,-96.4998,4.0,7.57,60.4,12.06,'1111122,1111122,1111122' 
TABS,ioos:station:wmo:42045:1,2019-03-04T07:00:00Z,26.2168,-96.4998,4.0,7.54,51.9,11.09,'1111122,1111122,1111122' 
TABS,ioos:station:wmo:42045:1,2019-03-04T08:00:00Z,26.2168,-96.4998,4.0,7.84,63.0,11.62,'1111122,1111122,1111122' 
TABS,ioos:station:wmo:42045:1,2019-03-04T10:00:00Z,26.2168,-96.4998,4.0,7.45,45.3,10.6,'1111122,1111122,1111122' 
TABS,ioos:station:wmo:42045:1,2019-03-04T11:00:00Z,26.2168,-96.4998,4.0,7.32,44.3,10.51,'1111122,1111122,1111122' 
TABS,ioos:station:wmo:42045:1,2019-03-04T12:00:00Z,26.2168,-96.4998,4.0,7.42,43.9,10.52,'1111122,1111122,1111122' 
TABS,ioos:station:wmo:42045:1,2019-03-04T13:00:00Z,26.2168,-96.4998,4.0,6.83,27.6,10.59,'1111122,1111122,1111122' 
TABS,ioos:station:wmo:42045:1,2019-03-04T13:30:00Z,26.2168,-96.4998,4.0,5.7,349.6,11.12,'1111122,1111122,1111122' 
TABS,ioos:station:wmo:42045:1,2019-03-04T15:00:00Z,26.2168,-96.4998,4.0,4.76,337.0,10.82,'1111122,1111122,1111122' 
TABS,ioos:station:wmo:42045:1,2019-03-04T16:00:00Z,26.2168,-96.4998,4.0,4.56,345.4,9.76,'1111122,1111122,1111122' 
TABS,ioos:station:wmo:42045:1,2019-03-04T17:00:00Z,26.2168,-96.4998,4.0,4.4,338.7,10.04,'1111122,1111122,1111122' 
TABS,ioos:station:wmo:42045:1,2019-03-04T17:30:00Z,26.2168,-96.4998,4.0,4.88,345.3,10.35,'1111122,1111122,1111122' 
TABS,ioos:station:wmo:42045:1,2019-03-04T18:30:00Z,26.2168,-96.4998,4.0,3.43,316.0,10.3,'1111122,1111122,1111122' 
TABS,ioos:station:wmo:42045:1,2019-03-04T19:30:00Z,26.2168,-96.4998,4.0,2.93,328.8,8.78,'1111122,1111122,1111122' 
TABS,ioos:station:wmo:42045:1,2019-03-04T20:30:00Z,26.2168,-96.4998,4.0,1.69,321.5,8.61,'1111122,1111122,1111122' 
TABS,ioos:station:wmo:42045:1,2019-03-04T21:30:00Z,26.2168,-96.4998,4.0,1.15,277.0,6.95,'1111122,1111122,1111122' 
TABS,ioos:station:wmo:42045:1,2019-03-05T04:00:00Z,26.2168,-96.4998,4.0,5.24,17.9,9.59,'1111122,1111122,1111122' 
TABS,ioos:station:wmo:42045:1,2019-03-05T07:00:00Z,26.2168,-96.4998,4.0,6.26,14.3,9.95,'1111122,1111122,1111122' 
TABS,ioos:station:wmo:42045:1,2019-03-05T08:00:00Z,26.2168,-96.4998,4.0,6.17,9.9,10.08,'1111122,1111122,1111122' 
TABS,ioos:station:wmo:42045:1,2019-03-05T09:00:00Z,26.2168,-96.4998,4.0,6.47,5.2,10.09,'1111122,1111122,1111122' 
TABS,ioos:station:wmo:42045:1,2019-03-05T10:00:00Z,26.2168,-96.4998,4.0,6.08,351.4,9.63,'1111122,1111122,1111122' 
TABS,ioos:station:wmo:42045:1,2019-03-05T11:30:00Z,26.2168,-96.4998,4.0,6.03,351.3,10.49,'1111122,1111122,1111122' 
TABS,ioos:station:wmo:42045:1,2019-03-05T12:30:00Z,26.2168,-96.4998,4.0,6.3,353.5,9.87,'1111122,1111122,1111122' 
TABS,ioos:station:wmo:42045:1,2019-03-05T13:30:00Z,26.2168,-96.4998,4.0,5.66,354.0,9.63,'1111122,1111122,1111122' 
TABS,ioos:station:wmo:42045:1,2019-03-05T15:00:00Z,26.2168,-96.4998,4.0,5.78,333.3,9.76,'1111122,1111122,1111122' 
TABS,ioos:station:wmo:42045:1,2019-03-05T16:00:00Z,26.2168,-96.4998,4.0,5.28,324.3,10.01,'1111122,1111122,1111122' 
TABS,ioos:station:wmo:42045:1,2019-03-05T17:00:00Z,26.2168,-96.4998,4.0,5.83,328.5,9.98,'1111122,1111122,1111122' 
TABS,ioos:station:wmo:42045:1,2019-03-05T19:30:00Z,26.2168,-96.4998,4.0,5.47,345.1,9.57,'1111122,1111122,1111122' 
TABS,ioos:station:wmo:42045:1,2019-03-05T22:00:00Z,26.2168,-96.4998,4.0,5.3,351.4,9.94,'1111122,1111122,1111122' 
TABS,ioos:station:wmo:42045:1,2019-03-05T23:00:00Z,26.2168,-96.4998,4.0,5.66,9.7,9.69,'1111122,1111122,1111122' 
TABS,ioos:station:wmo:42045:1,2019-03-05T23:30:00Z,26.2168,-96.4998,4.0,5.68,6.3,9.44,'1111122,1111122,1111122' 
TABS,ioos:station:wmo:42045:1,2019-03-06T04:30:00Z,26.2168,-96.4998,4.0,6.06,29.0,8.73,'1111122,1111122,1111122' 
TABS,ioos:station:wmo:42045:1,2019-03-06T06:00:00Z,26.2168,-96.4998,4.0,5.53,26.9,8.13,'1111122,1111122,1111122' 
TABS,ioos:station:wmo:42045:1,2019-03-06T07:00:00Z,26.2168,-96.4998,4.0,5.4,16.3,7.37,'1111122,1111122,1111122' 
TABS,ioos:station:wmo:42045:1,2019-03-06T07:30:00Z,26.2168,-96.4998,4.0,5.38,19.2,7.5,'1111122,1111122,1111122' 
TABS,ioos:station:wmo:42045:1,2019-03-06T09:00:00Z,26.2168,-96.4998,4.0,4.98,12.4,7.05,'1111122,1111122,1111122' 
TABS,ioos:station:wmo:42045:1,2019-03-06T10:30:00Z,26.2168,-96.4998,4.0,5.26,31.5,7.65,'1111122,1111122,1111122' 
TABS,ioos:station:wmo:42045:1,2019-03-06T11:30:00Z,26.2168,-96.4998,4.0,5.06,32.4,7.44,'1111122,1111122,1111122' 
TABS,ioos:station:wmo:42045:1,2019-03-06T12:30:00Z,26.2168,-96.4998,4.0,5.77,30.3,7.71,'1111122,1111122,1111122' 
TABS,ioos:station:wmo:42045:1,2019-03-06T14:00:00Z,26.2168,-96.4998,4.0,5.79,39.3,7.29,'1111122,1111122,1111122' 
TABS,ioos:station:wmo:42045:1,2019-03-06T15:00:00Z,26.2168,-96.4998,4.0,5.52,46.7,7.27,'1111122,1111122,1111122' 
TABS,ioos:station:wmo:42045:1,2019-03-06T16:00:00Z,26.2168,-96.4998,4.0,5.05,40.1,6.87,'1111122,1111122,1111122' 
TABS,ioos:station:wmo:42045:1,2019-03-06T17:00:00Z,26.2168,-96.4998,4.0,4.5,43.3,6.3,'1111122,1111122,1111122' 
TABS,ioos:station:wmo:42045:1,2019-03-06T18:00:00Z,26.2168,-96.4998,4.0,3.84,65.7,5.1,'1111122,1111122,1111122' 
TABS,ioos:station:wmo:42045:1,2019-03-06T19:00:00Z,26.2168,-96.4998,4.0,4.46,83.9,5.63,'1111122,1111122,1111122' 
TABS,ioos:station:wmo:42045:1,2019-03-06T20:00:00Z,26.2168,-96.4998,4.0,4.78,97.5,5.97,'1111122,1111122,1111122' 
TABS,ioos:station:wmo:42045:1,2019-03-06T21:00:00Z,26.2168,-96.4998,4.0,4.88,74.4,5.99,'1111122,1111122,1111122' 
TABS,ioos:station:wmo:42045:1,2019-03-06T22:00:00Z,26.2168,-96.4998,4.0,3.8,80.5,5.39,'1111122,1111122,1111122' 
TABS,ioos:station:wmo:42045:1,2019-03-06T22:30:00Z,26.2168,-96.4998,4.0,4.21,97.2,5.08,'1111122,1111122,1111122' 
TABS,ioos:station:wmo:42045:1,2019-03-06T23:30:00Z,26.2168,-96.4998,4.0,5.11,100.1,7.2,'1111122,1111122,1111122' 
TABS,ioos:station:wmo:42045:1,2019-03-07T03:30:00Z,26.2168,-96.4998,4.0,5.75,116.9,8.57,'1111122,1111122,1111122' 
TABS,ioos:station:wmo:42045:1,2019-03-07T07:00:00Z,26.2168,-96.4998,4.0,5.72,165.6,7.55,'1111122,1111122,1111122' 
TABS,ioos:station:wmo:42045:1,2019-03-07T08:00:00Z,26.2168,-96.4998,4.0,4.87,172.9,5.64,'1111122,1111122,1111122' 
TABS,ioos:station:wmo:42045:1,2019-03-07T08:30:00Z,26.2168,-96.4998,4.0,4.83,172.9,5.78,'1111122,1111122,1111122' 
TABS,ioos:station:wmo:42045:1,2019-03-07T09:30:00Z,26.2168,-96.4998,4.0,3.89,177.8,4.91,'1111122,1111122,1111122' 
TABS,ioos:station:wmo:42045:1,2019-03-07T10:30:00Z,26.2168,-96.4998,4.0,3.14,203.1,3.75,'1111122,1111122,1111122' 
TABS,ioos:station:wmo:42045:1,2019-03-07T11:30:00Z,26.2168,-96.4998,4.0,3.15,244.5,3.89,'1111122,1111122,1111122' 
TABS,ioos:station:wmo:42045:1,2019-03-07T13:00:00Z,26.2168,-96.4998,4.0,1.96,283.3,2.52,'1111122,1111122,1111122' 
TABS,ioos:station:wmo:42045:1,2019-03-07T13:30:00Z,26.2168,-96.4998,4.0,2.46,280.7,3.08,'1111122,1111122,1111122' 
TABS,ioos:station:wmo:42045:1,2019-03-07T14:30:00Z,26.2168,-96.4998,4.0,3.35,292.5,4.05,'1111122,1111122,1111122' 
TABS,ioos:station:wmo:42045:1,2019-03-07T15:30:00Z,26.2168,-96.4998,4.0,2.99,322.9,3.66,'1111122,1111122,1111122' 
TABS,ioos:station:wmo:42045:1,2019-03-07T16:30:00Z,26.2168,-96.4998,4.0,2.35,315.5,3.1,'1111122,1111122,1111122' 
TABS,ioos:station:wmo:42045:1,2019-03-07T17:30:00Z,26.2168,-96.4998,4.0,1.97,316.3,2.62,'1111122,1111122,1111122' 
TABS,ioos:station:wmo:42045:1,2019-03-07T19:00:00Z,26.2168,-96.4998,4.0,2.4,335.9,2.89,'1111122,1111122,1111122' 
TABS,ioos:station:wmo:42045:1,2019-03-07T20:30:00Z,26.2168,-96.4998,4.0,2.78,0.4,3.36,'1111122,1111122,1111122' 
TABS,ioos:station:wmo:42045:1,2019-03-07T21:30:00Z,26.2168,-96.4998,4.0,1.92,23.3,2.32,'1111122,1111122,1111122' 
TABS,ioos:station:wmo:42045:1,2019-03-07T22:30:00Z,26.2168,-96.4998,4.0,1.52,22.4,1.76,'1111122,1111122,1111122' 
TABS,ioos:station:wmo:42045:1,2019-03-07T23:30:00Z,26.2168,-96.4998,4.0,0.66,164.9,0.96,'1111122,1111122,1111122' 
TABS,ioos:station:wmo:42045:1,2019-03-08T01:30:00Z,26.2168,-96.4998,4.0,3.34,130.1,3.72,'1111122,1111122,1111122' 
TABS,ioos:station:wmo:42045:1,2019-03-08T07:00:00Z,26.2168,-96.4998,4.0,4.9,160.1,5.63,'1111122,1111122,1111122' 
TABS,ioos:station:wmo:42045:1,2019-03-08T08:00:00Z,26.2168,-96.4998,4.0,3.3,167.8,3.64,'1111122,1111122,1111122' 
TABS,ioos:station:wmo:42045:1,2019-03-08T09:00:00Z,26.2168,-96.4998,4.0,4.28,158.1,4.84,'1111122,1111122,1111122' 
TABS,ioos:station:wmo:42045:1,2019-03-08T10:30:00Z,26.2168,-96.4998,4.0,4.99,151.7,5.55,'1111122,1111122,1111122' 
TABS,ioos:station:wmo:42045:1,2019-03-08T12:30:00Z,26.2168,-96.4998,4.0,5.88,169.8,8.09,'1111122,1111122,1111122' 
TABS,ioos:station:wmo:42045:1,2019-03-08T15:00:00Z,26.2168,-96.4998,4.0,5.62,146.0,6.32,'1111122,1111122,1111122' 
TABS,ioos:station:wmo:42045:1,2019-03-08T16:30:00Z,26.2168,-96.4998,4.0,6.74,151.6,7.7,'1111122,1111122,1111122' 
TABS,ioos:station:wmo:42045:1,2019-03-08T17:30:00Z,26.2168,-96.4998,4.0,6.66,151.6,7.62,'1111122,1111122,1111122' 
TABS,ioos:station:wmo:42045:1,2019-03-08T19:30:00Z,26.2168,-96.4998,4.0,4.83,154.1,5.47,'1111122,1111122,1111122' 
TABS,ioos:station:wmo:42045:1,2019-03-08T21:00:00Z,26.2168,-96.4998,4.0,5.15,145.6,5.81,'1111122,1111122,1111122' 
TABS,ioos:station:wmo:42045:1,2019-03-08T22:00:00Z,26.2168,-96.4998,4.0,3.66,138.4,4.51,'1111122,1111122,1111122' 
TABS,ioos:station:wmo:42045:1,2019-03-08T22:30:00Z,26.2168,-96.4998,4.0,4.7,137.8,5.36,'1111122,1111122,1111122' 
TABS,ioos:station:wmo:42045:1,2019-03-08T23:30:00Z,26.2168,-96.4998,4.0,5.21,137.3,6.09,'1111122,1111122,1111122' 
TABS,ioos:station:wmo:42045:1,2019-03-09T03:00:00Z,26.2168,-96.4998,4.0,5.32,146.6,6.2,'1111122,1111122,1111122' 
TABS,ioos:station:wmo:42045:1,2019-03-09T06:30:00Z,26.2168,-96.4998,4.0,4.74,157.3,5.47,'1111122,1111122,1111122' 
TABS,ioos:station:wmo:42045:1,2019-03-09T08:00:00Z,26.2168,-96.4998,4.0,6.32,158.3,7.1,'1111122,1111122,1111122' 
TABS,ioos:station:wmo:42045:1,2019-03-09T10:00:00Z,26.2168,-96.4998,4.0,6.47,169.7,7.07,'1111122,1111122,1111122' 
TABS,ioos:station:wmo:42045:1,2019-03-09T13:30:00Z,26.2168,-96.4998,4.0,8.73,159.3,10.12,'1111122,1111122,1111122' 
TABS,ioos:station:wmo:42045:1,2019-03-09T17:30:00Z,26.2168,-96.4998,4.0,135.4,144.4,89.1,'1111122,1111122,1111122' 
TABS,ioos:station:wmo:42045:1,2019-03-09T19:00:00Z,26.2168,-96.4998,4.0,5.74,163.4,6.49,'1111122,1111122,1111122' 
TABS,ioos:station:wmo:42045:1,2019-03-09T20:00:00Z,26.2168,-96.4998,4.0,5.02,169.9,6.48,'1111122,1111122,1111122' 
TABS,ioos:station:wmo:42045:1,2019-03-09T20:30:00Z,26.2168,-96.4998,4.0,3.21,155.5,3.99,'1111122,1111122,1111122' 
TABS,ioos:station:wmo:42045:1,2019-03-09T22:00:00Z,26.2168,-96.4998,4.0,3.48,115.4,4.04,'1111122,1111122,1111122' 
TABS,ioos:station:wmo:42045:1,2019-03-09T22:30:00Z,26.2168,-96.4998,4.0,3.86,103.2,4.49,'1111122,1111122,1111122' 
TABS,ioos:station:wmo:42045:1,2019-03-09T23:30:00Z,26.2168,-96.4998,4.0,4.17,126.7,5.15,'1111122,1111122,1111122' 
TABS,ioos:station:wmo:42045:1,2019-03-10T04:30:00Z,26.2168,-96.4998,4.0,3.94,125.9,4.46,'1111122,1111122,1111122' 
TABS,ioos:station:wmo:42045:1,2019-03-10T07:30:00Z,26.2168,-96.4998,4.0,4.16,117.4,4.64,'1111122,1111122,1111122' 
TABS,ioos:station:wmo:42045:1,2019-03-10T10:00:00Z,26.2168,-96.4998,4.0,4.82,135.5,5.4,'1111122,1111122,1111122' 
TABS,ioos:station:wmo:42045:1,2019-03-10T12:00:00Z,26.2168,-96.4998,4.0,4.51,124.5,5.06,'1111122,1111122,1111122' 
TABS,ioos:station:wmo:42045:1,2019-03-10T13:30:00Z,26.2168,-96.4998,4.0,5.8,128.3,6.37,'1111122,1111122,1111122' 
TABS,ioos:station:wmo:42045:1,2019-03-10T15:00:00Z,26.2168,-96.4998,4.0,5.28,118.0,6.16,'1111122,1111122,1111122' 
TABS,ioos:station:wmo:42045:1,2019-03-10T16:00:00Z,26.2168,-96.4998,4.0,4.01,124.5,4.4,'1111122,1111122,1111122' 
TABS,ioos:station:wmo:42045:1,2019-03-10T17:00:00Z,26.2168,-96.4998,4.0,4.78,117.4,5.65,'1111122,1111122,1111122' 
TABS,ioos:station:wmo:42045:1,2019-03-10T18:00:00Z,26.2168,-96.4998,4.0,3.65,125.1,4.4,'1111122,1111122,1111122' 
TABS,ioos:station:wmo:42045:1,2019-03-10T19:00:00Z,26.2168,-96.4998,4.0,0.94,162.7,1.45,'1111122,1111122,1111122' 
TABS,ioos:station:wmo:42045:1,2019-03-10T20:00:00Z,26.2168,-96.4998,4.0,1.54,53.7,2.49,'1111122,1111122,1111122' 
TABS,ioos:station:wmo:42045:1,2019-03-10T21:00:00Z,26.2168,-96.4998,4.0,1.28,83.1,1.8,'1111122,1111122,1111122' 
TABS,ioos:station:wmo:42045:1,2019-03-11T02:30:00Z,26.2168,-96.4998,4.0,2.68,118.7,3.04,'1111122,1111122,1111122' 
TABS,ioos:station:wmo:42045:1,2019-03-11T04:30:00Z,26.2168,-96.4998,4.0,2.27,108.8,3.24,'1111122,1111122,1111122' 
TABS,ioos:station:wmo:42045:1,2019-03-11T05:30:00Z,26.2168,-96.4998,4.0,1.91,117.4,2.4,'1111122,1111122,1111122' 
TABS,ioos:station:wmo:42045:1,2019-03-11T07:30:00Z,26.2168,-96.4998,4.0,2.62,85.2,3.03,'1111122,1111122,1111122' 
TABS,ioos:station:wmo:42045:1,2019-03-11T08:30:00Z,26.2168,-96.4998,4.0,3.2,112.2,3.63,'1111122,1111122,1111122' 
TABS,ioos:station:wmo:42045:1,2019-03-11T12:00:00Z,26.2168,-96.4998,4.0,3.2,95.0,3.68,'1111122,1111122,1111122' 
TABS,ioos:station:wmo:42045:1,2019-03-11T13:30:00Z,26.2168,-96.4998,4.0,2.58,55.2,2.95,'1111122,1111122,1111122' 
TABS,ioos:station:wmo:42045:1,2019-03-11T14:00:00Z,26.2168,-96.4998,4.0,2.89,61.0,3.35,'1111122,1111122,1111122' 
TABS,ioos:station:wmo:42045:1,2019-03-11T15:30:00Z,26.2168,-96.4998,4.0,2.57,76.8,2.93,'1111122,1111122,1111122' 
TABS,ioos:station:wmo:42045:1,2019-03-11T16:30:00Z,26.2168,-96.4998,4.0,2.67,55.7,3.27,'1111122,1111122,1111122' 
TABS,ioos:station:wmo:42045:1,2019-03-11T18:00:00Z,26.2168,-96.4998,4.0,3.57,68.9,4.13,'1111122,1111122,1111122' 
TABS,ioos:station:wmo:42045:1,2019-03-11T19:30:00Z,26.2168,-96.4998,4.0,4.37,73.9,4.98,'1111122,1111122,1111122' 
TABS,ioos:station:wmo:42045:1,2019-03-11T22:00:00Z,26.2168,-96.4998,4.0,4.75,111.2,5.39,'1111122,1111122,1111122' 
TABS,ioos:station:wmo:42045:1,2019-03-11T23:00:00Z,26.2168,-96.4998,4.0,4.66,109.3,5.17,'1111122,1111122,1111122' 
TABS,ioos:station:wmo:42045:1,2019-03-11T23:30:00Z,26.2168,-96.4998,4.0,4.76,109.5,5.5,'1111122,1111122,1111122' 
TABS,ioos:station:wmo:42045:1,2019-03-12T04:00:00Z,26.2168,-96.4998,4.0,5.29,129.0,5.9,'1111122,1111122,1111122' 
TABS,ioos:station:wmo:42045:1,2019-03-12T06:30:00Z,26.2168,-96.4998,4.0,5.76,127.6,6.36,'1111122,1111122,1111122' 
TABS,ioos:station:wmo:42045:1,2019-03-12T11:00:00Z,26.2168,-96.4998,4.0,4.1,125.3,4.84,'1111122,1111122,1111122' 
TABS,ioos:station:wmo:42045:1,2019-03-12T12:00:00Z,26.2168,-96.4998,4.0,5.48,111.9,6.39,'1111122,1111122,1111122' 
TABS,ioos:station:wmo:42045:1,2019-03-12T13:00:00Z,26.2168,-96.4998,4.0,5.13,113.4,5.65,'1111122,1111122,1111122' 
TABS,ioos:station:wmo:42045:1,2019-03-12T14:00:00Z,26.2168,-96.4998,4.0,5.23,128.1,5.92,'1111122,1111122,1111122' 
TABS,ioos:station:wmo:42045:1,2019-03-12T15:00:00Z,26.2168,-96.4998,4.0,4.44,134.5,5.57,'1111122,1111122,1111122' 
TABS,ioos:station:wmo:42045:1,2019-03-12T16:00:00Z,26.2168,-96.4998,4.0,2.69,119.1,3.09,'1111122,1111122,1111122' 
TABS,ioos:station:wmo:42045:1,2019-03-12T16:30:00Z,26.2168,-96.4998,4.0,2.54,107.2,3.12,'1111122,1111122,1111122' 
TABS,ioos:station:wmo:42045:1,2019-03-12T17:30:00Z,26.2168,-96.4998,4.0,3.38,113.3,3.91,'1111122,1111122,1111122' 
TABS,ioos:station:wmo:42045:1,2019-03-12T18:30:00Z,26.2168,-96.4998,4.0,3.24,123.5,3.84,'1111122,1111122,1111122' 
TABS,ioos:station:wmo:42045:1,2019-03-12T20:00:00Z,26.2168,-96.4998,4.0,4.01,114.4,4.65,'1111122,1111122,1111122' 
TABS,ioos:station:wmo:42045:1,2019-03-12T21:00:00Z,26.2168,-96.4998,4.0,4.4,121.2,5.17,'1111122,1111122,1111122' 
TABS,ioos:station:wmo:42045:1,2019-03-12T22:00:00Z,26.2168,-96.4998,4.0,5.37,126.9,6.26,'1111122,1111122,1111122' 
TABS,ioos:station:wmo:42045:1,2019-03-12T23:00:00Z,26.2168,-96.4998,4.0,5.88,136.0,6.8,'1111122,1111122,1111122' 
TABS,ioos:station:wmo:42045:1,2019-03-12T23:30:00Z,26.2168,-96.4998,4.0,6.61,138.9,7.64,'1111122,1111122,1111122' 
TABS,ioos:station:wmo:42045:1,2019-03-13T02:00:00Z,26.2168,-96.4998,4.0,9.19,142.5,10.64,'1111122,1111122,1111122' 
TABS,ioos:station:wmo:42045:1,2019-03-13T04:30:00Z,26.2168,-96.4998,4.0,7.77,144.5,8.78,'1111122,1111122,1111122' 
TABS,ioos:station:wmo:42045:1,2019-03-13T05:30:00Z,26.2168,-96.4998,4.0,10.31,148.1,11.98,'1111122,1111122,1111122' 
TABS,ioos:station:wmo:42045:1,2019-03-13T09:00:00Z,26.2168,-96.4998,4.0,10.82,151.4,12.86,'1111122,1111122,1111122' 
TABS,ioos:station:wmo:42045:1,2019-03-13T11:00:00Z,26.2168,-96.4998,4.0,10.27,153.9,12.36,'1111122,1111122,1111122' 
TABS,ioos:station:wmo:42045:1,2019-03-13T13:00:00Z,26.2168,-96.4998,4.0,10.75,155.7,12.66,'1111122,1111122,1111122' 
TABS,ioos:station:wmo:42045:1,2019-03-13T14:00:00Z,26.2168,-96.4998,4.0,9.67,154.9,11.43,'1111122,1111122,1111122' 
TABS,ioos:station:wmo:42045:1,2019-03-13T16:00:00Z,26.2168,-96.4998,4.0,8.82,152.9,10.07,'1111122,1111122,1111122' 
TABS,ioos:station:wmo:42045:1,2019-03-13T18:00:00Z,26.2168,-96.4998,4.0,5.81,154.5,7.13,'1111122,1111122,1111122' 
TABS,ioos:station:wmo:42045:1,2019-03-13T19:00:00Z,26.2168,-96.4998,4.0,3.87,161.0,4.71,'1111122,1111122,1111122' 
TABS,ioos:station:wmo:42045:1,2019-03-13T20:00:00Z,26.2168,-96.4998,4.0,1.88,166.4,2.42,'1111122,1111122,1111122' 
TABS,ioos:station:wmo:42045:1,2019-03-13T21:00:00Z,26.2168,-96.4998,4.0,2.98,138.8,3.71,'1111122,1111122,1111122' 
TABS,ioos:station:wmo:42045:1,2019-03-13T22:30:00Z,26.2168,-96.4998,4.0,5.1,147.8,6.32,'1111122,1111122,1111122' 
TABS,ioos:station:wmo:42045:1,2019-03-13T23:30:00Z,26.2168,-96.4998,4.0,5.17,145.8,6.07,'1111122,1111122,1111122' 
TABS,ioos:station:wmo:42045:1,2019-03-14T03:00:00Z,26.2168,-96.4998,4.0,5.29,143.6,6.55,'1111122,1111122,1111122' 
TABS,ioos:station:wmo:42045:1,2019-03-14T06:30:00Z,26.2168,-96.4998,4.0,6.46,145.1,7.25,'1111122,1111122,1111122' 
TABS,ioos:station:wmo:42045:1,2019-03-14T07:30:00Z,26.2168,-96.4998,4.0,6.22,149.6,7.11,'1111122,1111122,1111122' 
TABS,ioos:station:wmo:42045:1,2019-03-14T09:00:00Z,26.2168,-96.4998,4.0,4.83,150.2,5.37,'1111122,1111122,1111122' 
TABS,ioos:station:wmo:42045:1,2019-03-14T11:00:00Z,26.2168,-96.4998,4.0,6.05,150.0,6.61,'1111122,1111122,1111122' 
TABS,ioos:station:wmo:42045:1,2019-03-14T12:00:00Z,26.2168,-96.4998,4.0,4.58,154.4,5.15,'1111122,1111122,1111122' 
TABS,ioos:station:wmo:42045:1,2019-03-14T12:30:00Z,26.2168,-96.4998,4.0,2.54,146.4,3.15,'1111122,1111122,1111122' 
TABS,ioos:station:wmo:42045:1,2019-03-14T13:30:00Z,26.2168,-96.4998,4.0,0.34,168.4,0.82,'1111122,1111122,1111122' 
TABS,ioos:station:wmo:42045:1,2019-03-14T15:00:00Z,26.2168,-96.4998,4.0,1.54,329.2,2.06,'1111122,1111122,1111122' 
TABS,ioos:station:wmo:42045:1,2019-03-14T17:30:00Z,26.2168,-96.4998,4.0,3.75,333.9,4.67,'1111122,1111122,1111122' 
TABS,ioos:station:wmo:42045:1,2019-03-14T18:30:00Z,26.2168,-96.4998,4.0,2.98,334.1,3.75,'1111122,1111122,1111122' 